Location: Chevoux
(46.3801°N, 4.9476°E)
Time: 17:17:12
(UTC+00:00)

X-37B - Pass Details

Date: 08 December 2021
Orbit: 334 x 337 km, 45.0° (Epoch: 11 January)

Event Time Altitude Azimuth Distance (km) Brightness Sun altitude
Rises 17:32:57 0° 232° (SW) 2,096 5.6 -16.4°
Reaches altitude 10° 17:35:06 10° 219° (SW) 1,262 4.0 -16.7°
Maximum altitude 17:37:35 28° 158° (SSE) 669 1.7 -17.2°
Enters shadow 17:37:40 28° 154° (SSE) 670 1.6 -17.2°
